Kisumu, Kenya

11:54 AM EAT on April 26, 2017 (GMT +0300)
Kisumu

Weather History for HKKI - February, 2013

Change the Weather History Date:

Wednesday, February 27, 2013

  Actual Average Record
Temperature  
Mean Temperature 80 °F -  
Max Temperature 95 °F - - ()
Min Temperature 64 °F - - ()
Cooling Degree Days 14    
Growing Degree Days 30 (Base 50)    
Moisture  
Dew Point 50 °F    
Average Humidity 38    
Maximum Humidity 69    
Minimum Humidity 16    
Precipitation  
Precipitation 0.00 in - - ()
Sea Level Pressure  
Sea Level Pressure 30.01 in    
Wind  
Wind Speed 4 mph ()    
Max Wind Speed 17 mph    
Max Gust Speed -    
Visibility 9.9 miles    
Events      
T = Trace of Precipitation, MM = Missing Value Source: Averaged Metar Reports

Daily Weather History Graph

Daily Weather History Graph

Search for Another Location

Airport or City:

Trip Planner

Search our weather history database for the weather conditions in past years. The results will help you decide how hot, cold, wet, or windy it might be!

Date:

Astronomy

Feb. 27, 2013 Rise Set
Actual Time 6:50 AM EAT 6:57 PM EAT
Civil Twilight 6:29 AM EAT 7:17 PM EAT
Nautical Twilight 6:05 AM EAT 7:42 PM EAT
Astronomical Twilight 5:40 AM EAT 8:06 PM EAT
Moon 8:13 PM EAT (2/27) 7:48 AM EAT (2/27)
Length of Visible Light 12h 48m
Length of Day
12h 06m
Full, 97% of the Moon is Illuminated
Feb 27
Full
Mar 5
Last Quarter
Mar 11
New
Mar 19
First Quarter
Mar 27
Full

Hourly Weather History & Observations

Time (EAT) Temp. Dew Point Humidity Pressure Visibility Wind Dir Wind Speed Gust Speed Precip Events Conditions
12:00 AM 73.4 °F 62.6 °F 69% 30.04 in - Calm Calm - N/A   Clear
1:00 AM 71.6 °F 60.8 °F 69% 30.04 in - Calm Calm - N/A   Clear
2:00 AM 71.6 °F 59.0 °F 64% 30.04 in - Calm Calm - N/A   Clear
3:00 AM 69 °F 56 °F 55%  in 19 mi Calm Calm - -   Clear
3:00 AM 69.8 °F 57.2 °F 64% 30.04 in - Calm Calm - N/A   Clear
4:00 AM 57.2 °F 46.4 °F 67% - - Calm Calm - N/A   Clear
5:00 AM 68.0 °F 55.4 °F 64% 30.04 in - Calm Calm - N/A   Clear
6:00 AM 66.2 °F 53.6 °F 64% 30.04 in - NE 5.8 mph - N/A   Clear
7:00 AM 68.0 °F 51.8 °F 56% 30.06 in - Calm Calm - N/A   Clear
8:00 AM 71.6 °F 51.8 °F 50% 30.06 in - ESE 6.9 mph - N/A   Clear
9:00 AM 77 °F 51 °F 30%  in 19 mi ESE 9.2 mph - -   Clear
9:00 AM 77.0 °F 51.8 °F 41% 30.09 in - ESE 9.2 mph - N/A   Clear
10:00 AM 82.4 °F 51.8 °F 35% 30.09 in 6.2 mi East 17.3 mph - N/A   Mostly Cloudy
11:00 AM 86.0 °F 50.0 °F 29% 30.06 in 6.2 mi East 17.3 mph - N/A   Mostly Cloudy
12:00 PM 89.6 °F 48.2 °F 24% 30.06 in 6.2 mi East 12.7 mph - N/A   Mostly Cloudy
1:00 PM 91.4 °F 44.6 °F 20% 30.01 in 6.2 mi NNE 6.9 mph - N/A   Mostly Cloudy
2:00 PM 93.2 °F 42.8 °F 17% 29.98 in 6.2 mi NE 6.9 mph - N/A   Scattered Clouds
3:00 PM 95 °F 57 °F 18%  in 19 mi SSE 6.9 mph - -   Scattered Clouds
3:00 PM 95.0 °F 46.4 °F 19% 29.95 in 6.2 mi SSE 6.9 mph - N/A   Scattered Clouds
4:00 PM 95.0 °F 42.8 °F 16% 29.92 in 6.2 mi Calm Calm - N/A   Scattered Clouds
5:00 PM 95.0 °F 42.8 °F 16% 29.92 in 6.2 mi East 15.0 mph - N/A   Partly Cloudy
6:00 PM 93.2 °F 42.8 °F 17% 29.92 in 6.2 mi ENE 5.8 mph - N/A   Partly Cloudy
7:00 PM 86.0 °F 46.4 °F 25% 29.92 in 6.2 mi NE 11.5 mph - N/A   Mostly Cloudy
8:00 PM 84.2 °F 44.6 °F 25% 29.95 in - NE 12.7 mph - N/A   Clear
9:00 PM 81 °F 46 °F 19%  in 19 mi Calm Calm - -   Clear
9:00 PM 80.6 °F 46.4 °F 30% 29.98 in - Calm Calm - N/A   Clear
10:00 PM 78.8 °F 48.2 °F 34% 30.01 in - SSE 11.5 mph - N/A   Clear
11:00 PM 73.4 °F 48.2 °F 41% 30.01 in - East 9.2 mph - N/A   Clear